TimeCDT,TemperatureF,Dew PointF,Humidity,Sea Level PressureIn,VisibilityMPH,Wind Direction,Wind SpeedMPH,Gust SpeedMPH,PrecipitationIn,Events,Conditions,WindDirDegrees,DateUTC
12:56 AM,51.1,46.9,86,30.19,10.0,Calm,Calm,-,N/A,,Clear,0,2011-10-25 05:56:00
1:56 AM,51.1,46.9,86,30.19,10.0,North,3.5,-,N/A,,Clear,350,2011-10-25 06:56:00
2:56 AM,50.0,45.0,83,30.18,10.0,North,3.5,-,N/A,,Clear,350,2011-10-25 07:56:00
3:56 AM,46.9,44.1,90,30.18,10.0,Calm,Calm,-,N/A,,Clear,0,2011-10-25 08:56:00
4:56 AM,46.9,44.1,90,30.18,10.0,North,4.6,-,N/A,,Clear,350,2011-10-25 09:56:00
5:56 AM,48.9,44.1,83,30.19,10.0,NNW,3.5,-,N/A,,Clear,340,2011-10-25 10:56:00
6:56 AM,45.0,42.1,90,30.21,10.0,Calm,Calm,-,N/A,,Clear,0,2011-10-25 11:56:00
7:56 AM,50.0,45.0,83,30.23,10.0,Calm,Calm,-,N/A,,Clear,0,2011-10-25 12:56:00
8:56 AM,63.0,52.0,67,30.23,10.0,Calm,Calm,-,N/A,,Clear,0,2011-10-25 13:56:00
9:56 AM,69.1,51.1,53,30.23,10.0,East,4.6,-,N/A,,Clear,90,2011-10-25 14:56:00
10:56 AM,73.0,48.9,42,30.23,10.0,ESE,8.1,-,N/A,,Clear,120,2011-10-25 15:56:00
11:56 AM,75.9,46.0,35,30.22,10.0,SSE,5.8,-,N/A,,Clear,160,2011-10-25 16:56:00
12:56 PM,78.1,46.9,33,30.18,10.0,Variable,3.5,-,N/A,,Clear,0,2011-10-25 17:56:00
1:56 PM,79.0,42.1,27,30.15,10.0,East,8.1,-,N/A,,Clear,100,2011-10-25 18:56:00
2:56 PM,80.1,42.1,26,30.13,10.0,Variable,6.9,-,N/A,,Clear,0,2011-10-25 19:56:00
3:56 PM,80.1,42.1,26,30.12,10.0,Variable,4.6,-,N/A,,Clear,0,2011-10-25 20:56:00
4:56 PM,78.1,42.1,28,30.12,10.0,South,5.8,-,N/A,,Clear,170,2011-10-25 21:56:00
5:56 PM,73.9,43.0,33,30.12,10.0,South,4.6,-,N/A,,Clear,190,2011-10-25 22:56:00
6:56 PM,66.0,46.9,50,30.12,10.0,Calm,Calm,-,N/A,,Clear,0,2011-10-25 23:56:00
7:56 PM,60.1,48.9,67,30.13,10.0,Calm,Calm,-,N/A,,Clear,0,2011-10-26 00:56:00
8:56 PM,57.0,48.9,74,30.14,10.0,Calm,Calm,-,N/A,,Clear,0,2011-10-26 01:56:00
9:56 PM,54.0,48.0,80,30.15,10.0,Calm,Calm,-,N/A,,Clear,0,2011-10-26 02:56:00
10:56 PM,52.0,46.9,83,30.15,10.0,Calm,Calm,-,N/A,,Clear,0,2011-10-26 03:56:00
11:56 PM,51.1,46.0,83,30.14,10.0,Calm,Calm,-,N/A,,Clear,0,2011-10-26 04:56:00